Flag for Chile Weather past 2 weeks in Easter Island, Chile

Now
68 °F

Scattered clouds.


Feels Like: 68 °F
Forecast: 64 / 70 °F
Wind: 9 mph from Southwest

Location: Isla De Pascua

Current Time: Aug 2, 2015 at 12:04:20 PM

Latest Report: Aug 2, 2015 at 11:00 AM


Visibility: N/A

Pressure: 29.89 "Hg

Humidity: 78%

Dew point: 61 °F

Location of Easter IslandLocation

Historic Weather in Easter Island — Graph

°F

Easter Island temperature yesterday

Maximum temperature yesterday: 70 °F (at 5:00 PM)
Minimum temperature yesterday: 63 °F (at 9:00 AM)
Average temperature yesterday: 66 °F

Past Weeks' High & Low Weather Summary

 TemperatureHumidityPressure
High72 °F (Jul 24, 2:00 PM)94% (Jul 27, 8:00 PM)30.51 "Hg (Jul 27, 8:00 PM)
Low52 °F (Jul 30, 2:00 AM)46% (Jul 28, 1:00 PM)29.83 "Hg (Aug 1, 4:00 PM)
Average65 °F74%30.15 "Hg
* Reported Jul 18 11:00 AM — Aug 2 11:00 AM, Easter Island, Weather by CustomWeather, © 2015

Note: Actual official high and low records may vary slightly from our data, if they occured in-between our weather recording intervals... More about our weather records

Advertising

Easter Island weather history for previous 24 hours

 ConditionsComfort  
Time TempWeatherWind HumidityBarometerVisibility
11:00 AM
Sun, Aug 2
68 °FScattered clouds.9 mph78%29.89 "HgN/A
9:00 AM66 °FScattered clouds.9 mph83%29.86 "HgN/A
8:00 AM66 °FPassing clouds.10 mph83%29.83 "HgN/A
7:00 AM64 °FPassing clouds.12 mph88%29.83 "HgN/A
6:00 AM64 °FPassing clouds.10 mph94%29.83 "HgN/A
5:00 AM64 °FPassing clouds.10 mph94%29.86 "HgN/A
4:00 AM64 °FPassing clouds.9 mph94%29.86 "HgN/A
3:00 AM64 °FPassing clouds.8 mph94%29.86 "HgN/A
2:00 AM64 °FPartly cloudy.7 mph94%29.86 "HgN/A
1:00 AM66 °FPassing clouds.7 mph88%29.86 "HgN/A
12:00 AM66 °FPartly cloudy.8 mph88%29.89 "HgN/A
11:00 PM
Sat, Aug 1
66 °FPartly cloudy.10 mph88%29.86 "HgN/A
10:00 PM66 °FPartly cloudy.10 mph88%29.86 "HgN/A
9:00 PM66 °FPartly cloudy.10 mph88%29.86 "HgN/A
8:00 PM66 °FPassing clouds.8 mph88%29.83 "HgN/A
7:00 PM68 °FPartly sunny.10 mph88%29.83 "HgN/A
6:00 PM70 °FBroken clouds.10 mph88%29.83 "HgN/A
5:00 PM70 °FBroken clouds.10 mph83%29.83 "HgN/A
4:00 PM68 °FBroken clouds.12 mph88%29.83 "HgN/A
3:00 PM68 °FPartly sunny.15 mph88%29.86 "HgN/A
2:00 PM68 °FBroken clouds.16 mph88%29.89 "HgN/A
1:00 PM66 °FScattered clouds.17 mph88%29.89 "HgN/A
12:00 PM66 °FSprinkles. Broken clouds.18 mph88%29.89 "Hg5 mi
Weather by CustomWeather, © 2015

See weather overviewHow to use our weather pages